Index of /20260428/WXO-DD/model_gdps/15km/00/003
Name Last modified Size Description
Parent Directory -
20260428T00Z_MSC_GDPS_AbsoluteVorticity_IsbL-0200_LatLon0.15_PT003H.grib2 2026-04-28 03:57 1.5M
20260428T00Z_MSC_GDPS_AbsoluteVorticity_IsbL-0250_LatLon0.15_PT003H.grib2 2026-04-28 03:57 1.3M
20260428T00Z_MSC_GDPS_AbsoluteVorticity_IsbL-0500_LatLon0.15_PT003H.grib2 2026-04-28 03:57 1.5M
20260428T00Z_MSC_GDPS_AbsoluteVorticity_IsbL-0700_LatLon0.15_PT003H.grib2 2026-04-28 03:57 1.3M
20260428T00Z_MSC_GDPS_AbsoluteVorticity_IsbL-0850_LatLon0.15_PT003H.grib2 2026-04-28 03:57 1.6M
20260428T00Z_MSC_GDPS_AirTemp_AGL-120m_LatLon0.15_PT003H.grib2 2026-04-28 03:57 900K
20260428T00Z_MSC_GDPS_AirTemp_AGL-2m_LatLon0.15_PT003H.grib2 2026-04-28 03:57 1.0M
20260428T00Z_MSC_GDPS_AirTemp_AGL-40m_LatLon0.15_PT003H.grib2 2026-04-28 03:57 802K
20260428T00Z_MSC_GDPS_AirTemp_AGL-80m_LatLon0.15_PT003H.grib2 2026-04-28 03:57 907K
20260428T00Z_MSC_GDPS_AirTemp_IsbL-0001_LatLon0.15_PT003H.grib2 2026-04-28 03:57 661K
20260428T00Z_MSC_GDPS_AirTemp_IsbL-0005_LatLon0.15_PT003H.grib2 2026-04-28 03:57 693K
20260428T00Z_MSC_GDPS_AirTemp_IsbL-0010_LatLon0.15_PT003H.grib2 2026-04-28 03:57 765K
20260428T00Z_MSC_GDPS_AirTemp_IsbL-0020_LatLon0.15_PT003H.grib2 2026-04-28 03:57 787K
20260428T00Z_MSC_GDPS_AirTemp_IsbL-0030_LatLon0.15_PT003H.grib2 2026-04-28 03:57 747K
20260428T00Z_MSC_GDPS_AirTemp_IsbL-0050_LatLon0.15_PT003H.grib2 2026-04-28 03:57 806K
20260428T00Z_MSC_GDPS_AirTemp_IsbL-0100_LatLon0.15_PT003H.grib2 2026-04-28 03:57 1.0M
20260428T00Z_MSC_GDPS_AirTemp_IsbL-0150_LatLon0.15_PT003H.grib2 2026-04-28 03:57 965K
20260428T00Z_MSC_GDPS_AirTemp_IsbL-0175_LatLon0.15_PT003H.grib2 2026-04-28 03:57 952K
20260428T00Z_MSC_GDPS_AirTemp_IsbL-0200_LatLon0.15_PT003H.grib2 2026-04-28 03:57 968K
20260428T00Z_MSC_GDPS_AirTemp_IsbL-0225_LatLon0.15_PT003H.grib2 2026-04-28 03:57 971K
20260428T00Z_MSC_GDPS_AirTemp_IsbL-0250_LatLon0.15_PT003H.grib2 2026-04-28 03:57 1.0M
20260428T00Z_MSC_GDPS_AirTemp_IsbL-0275_LatLon0.15_PT003H.grib2 2026-04-28 03:57 1.0M
20260428T00Z_MSC_GDPS_AirTemp_IsbL-0300_LatLon0.15_PT003H.grib2 2026-04-28 03:57 1.0M
20260428T00Z_MSC_GDPS_AirTemp_IsbL-0350_LatLon0.15_PT003H.grib2 2026-04-28 03:57 929K
20260428T00Z_MSC_GDPS_AirTemp_IsbL-0400_LatLon0.15_PT003H.grib2 2026-04-28 03:57 939K
20260428T00Z_MSC_GDPS_AirTemp_IsbL-0450_LatLon0.15_PT003H.grib2 2026-04-28 03:57 961K
20260428T00Z_MSC_GDPS_AirTemp_IsbL-0500_LatLon0.15_PT003H.grib2 2026-04-28 03:57 1.0M
20260428T00Z_MSC_GDPS_AirTemp_IsbL-0550_LatLon0.15_PT003H.grib2 2026-04-28 03:57 799K
20260428T00Z_MSC_GDPS_AirTemp_IsbL-0600_LatLon0.15_PT003H.grib2 2026-04-28 03:57 888K
20260428T00Z_MSC_GDPS_AirTemp_IsbL-0650_LatLon0.15_PT003H.grib2 2026-04-28 03:57 918K
20260428T00Z_MSC_GDPS_AirTemp_IsbL-0700_LatLon0.15_PT003H.grib2 2026-04-28 03:57 944K
20260428T00Z_MSC_GDPS_AirTemp_IsbL-0750_LatLon0.15_PT003H.grib2 2026-04-28 03:57 1.0M
20260428T00Z_MSC_GDPS_AirTemp_IsbL-0800_LatLon0.15_PT003H.grib2 2026-04-28 03:57 1.1M
20260428T00Z_MSC_GDPS_AirTemp_IsbL-0850_LatLon0.15_PT003H.grib2 2026-04-28 03:57 1.1M
20260428T00Z_MSC_GDPS_AirTemp_IsbL-0875_LatLon0.15_PT003H.grib2 2026-04-28 03:57 1.1M
20260428T00Z_MSC_GDPS_AirTemp_IsbL-0900_LatLon0.15_PT003H.grib2 2026-04-28 03:57 1.1M
20260428T00Z_MSC_GDPS_AirTemp_IsbL-0925_LatLon0.15_PT003H.grib2 2026-04-28 03:57 1.1M
20260428T00Z_MSC_GDPS_AirTemp_IsbL-0950_LatLon0.15_PT003H.grib2 2026-04-28 03:57 1.1M
20260428T00Z_MSC_GDPS_AirTemp_IsbL-0970_LatLon0.15_PT003H.grib2 2026-04-28 03:57 1.2M
20260428T00Z_MSC_GDPS_AirTemp_IsbL-0985_LatLon0.15_PT003H.grib2 2026-04-28 03:57 1.1M
20260428T00Z_MSC_GDPS_AirTemp_IsbL-1000_LatLon0.15_PT003H.grib2 2026-04-28 03:57 1.1M
20260428T00Z_MSC_GDPS_AirTemp_IsbL-1015_LatLon0.15_PT003H.grib2 2026-04-28 03:57 1.1M
20260428T00Z_MSC_GDPS_Albedo_Sfc_LatLon0.15_PT003H.grib2 2026-04-28 03:57 246K
20260428T00Z_MSC_GDPS_CAPE_Sfc_LatLon0.15_PT003H.grib2 2026-04-28 03:57 4.0M
20260428T00Z_MSC_GDPS_CIN_Sfc_LatLon0.15_PT003H.grib2 2026-04-28 03:57 3.0M
20260428T00Z_MSC_GDPS_CloudWater_EAtm_LatLon0.15_PT003H.grib2 2026-04-28 03:57 522K
20260428T00Z_MSC_GDPS_ConvectivePrecip-Accum_Sfc_LatLon0.15_PT003H.grib2 2026-04-28 03:57 1.3M
20260428T00Z_MSC_GDPS_DewPointDepression_AGL-2m_LatLon0.15_PT003H.grib2 2026-04-28 03:57 754K
20260428T00Z_MSC_GDPS_DewPointDepression_IsbL-0010_LatLon0.15_PT003H.grib2 2026-04-28 03:57 52K
20260428T00Z_MSC_GDPS_DewPointDepression_IsbL-0020_LatLon0.15_PT003H.grib2 2026-04-28 03:57 86K
20260428T00Z_MSC_GDPS_DewPointDepression_IsbL-0030_LatLon0.15_PT003H.grib2 2026-04-28 03:57 70K
20260428T00Z_MSC_GDPS_DewPointDepression_IsbL-0050_LatLon0.15_PT003H.grib2 2026-04-28 03:57 367K
20260428T00Z_MSC_GDPS_DewPointDepression_IsbL-0100_LatLon0.15_PT003H.grib2 2026-04-28 03:57 405K
20260428T00Z_MSC_GDPS_DewPointDepression_IsbL-0150_LatLon0.15_PT003H.grib2 2026-04-28 03:57 469K
20260428T00Z_MSC_GDPS_DewPointDepression_IsbL-0175_LatLon0.15_PT003H.grib2 2026-04-28 03:57 569K
20260428T00Z_MSC_GDPS_DewPointDepression_IsbL-0200_LatLon0.15_PT003H.grib2 2026-04-28 03:57 675K
20260428T00Z_MSC_GDPS_DewPointDepression_IsbL-0225_LatLon0.15_PT003H.grib2 2026-04-28 03:57 780K
20260428T00Z_MSC_GDPS_DewPointDepression_IsbL-0250_LatLon0.15_PT003H.grib2 2026-04-28 03:57 872K
20260428T00Z_MSC_GDPS_DewPointDepression_IsbL-0275_LatLon0.15_PT003H.grib2 2026-04-28 03:57 895K
20260428T00Z_MSC_GDPS_DewPointDepression_IsbL-0300_LatLon0.15_PT003H.grib2 2026-04-28 03:57 939K
20260428T00Z_MSC_GDPS_DewPointDepression_IsbL-0350_LatLon0.15_PT003H.grib2 2026-04-28 03:57 962K
20260428T00Z_MSC_GDPS_DewPointDepression_IsbL-0400_LatLon0.15_PT003H.grib2 2026-04-28 03:57 1.0M
20260428T00Z_MSC_GDPS_DewPointDepression_IsbL-0450_LatLon0.15_PT003H.grib2 2026-04-28 03:57 1.0M
20260428T00Z_MSC_GDPS_DewPointDepression_IsbL-0500_LatLon0.15_PT003H.grib2 2026-04-28 03:57 1.0M
20260428T00Z_MSC_GDPS_DewPointDepression_IsbL-0550_LatLon0.15_PT003H.grib2 2026-04-28 03:57 1.0M
20260428T00Z_MSC_GDPS_DewPointDepression_IsbL-0600_LatLon0.15_PT003H.grib2 2026-04-28 03:57 1.0M
20260428T00Z_MSC_GDPS_DewPointDepression_IsbL-0650_LatLon0.15_PT003H.grib2 2026-04-28 03:57 1.1M
20260428T00Z_MSC_GDPS_DewPointDepression_IsbL-0700_LatLon0.15_PT003H.grib2 2026-04-28 03:57 1.1M
20260428T00Z_MSC_GDPS_DewPointDepression_IsbL-0750_LatLon0.15_PT003H.grib2 2026-04-28 03:57 1.1M
20260428T00Z_MSC_GDPS_DewPointDepression_IsbL-0800_LatLon0.15_PT003H.grib2 2026-04-28 03:57 1.2M
20260428T00Z_MSC_GDPS_DewPointDepression_IsbL-0850_LatLon0.15_PT003H.grib2 2026-04-28 03:57 1.1M
20260428T00Z_MSC_GDPS_DewPointDepression_IsbL-0875_LatLon0.15_PT003H.grib2 2026-04-28 03:57 1.1M
20260428T00Z_MSC_GDPS_DewPointDepression_IsbL-0900_LatLon0.15_PT003H.grib2 2026-04-28 03:57 1.1M
20260428T00Z_MSC_GDPS_DewPointDepression_IsbL-0925_LatLon0.15_PT003H.grib2 2026-04-28 03:57 1.0M
20260428T00Z_MSC_GDPS_DewPointDepression_IsbL-0950_LatLon0.15_PT003H.grib2 2026-04-28 03:57 1.0M
20260428T00Z_MSC_GDPS_DewPointDepression_IsbL-0970_LatLon0.15_PT003H.grib2 2026-04-28 03:57 1.0M
20260428T00Z_MSC_GDPS_DewPointDepression_IsbL-0985_LatLon0.15_PT003H.grib2 2026-04-28 03:57 1.0M
20260428T00Z_MSC_GDPS_DewPointDepression_IsbL-1000_LatLon0.15_PT003H.grib2 2026-04-28 03:57 965K
20260428T00Z_MSC_GDPS_DewPointDepression_IsbL-1015_LatLon0.15_PT003H.grib2 2026-04-28 03:57 912K
20260428T00Z_MSC_GDPS_DewPoint_AGL-2m_LatLon0.15_PT003H.grib2 2026-04-28 03:57 597K
20260428T00Z_MSC_GDPS_DownwardLongwaveRadiationFlux-Accum_Sfc_LatLon0.15_PT003H.grib2 2026-04-28 03:57 1.0M
20260428T00Z_MSC_GDPS_DownwardShortwaveRadiationFlux-Accum_NTAtm_LatLon0.15_PT003H.grib2 2026-04-28 03:57 211K
20260428T00Z_MSC_GDPS_DownwardShortwaveRadiationFlux-Accum_Sfc_LatLon0.15_PT003H.grib2 2026-04-28 03:57 590K
20260428T00Z_MSC_GDPS_FreezingRain-Accum1h_Sfc_LatLon0.15_PT003H.grib2 2026-04-28 03:57 23K
20260428T00Z_MSC_GDPS_FreezingRain-Accum3h_Sfc_LatLon0.15_PT003H.grib2 2026-04-28 03:57 28K
20260428T00Z_MSC_GDPS_FreezingRain-Accum_Sfc_LatLon0.15_PT003H.grib2 2026-04-28 03:57 39K
20260428T00Z_MSC_GDPS_GeopotentialHeight_IsbL-0001_LatLon0.15_PT003H.grib2 2026-04-28 03:57 398K
20260428T00Z_MSC_GDPS_GeopotentialHeight_IsbL-0005_LatLon0.15_PT003H.grib2 2026-04-28 03:57 495K
20260428T00Z_MSC_GDPS_GeopotentialHeight_IsbL-0010_LatLon0.15_PT003H.grib2 2026-04-28 03:57 483K
20260428T00Z_MSC_GDPS_GeopotentialHeight_IsbL-0020_LatLon0.15_PT003H.grib2 2026-04-28 03:57 418K
20260428T00Z_MSC_GDPS_GeopotentialHeight_IsbL-0030_LatLon0.15_PT003H.grib2 2026-04-28 03:57 575K
20260428T00Z_MSC_GDPS_GeopotentialHeight_IsbL-0050_LatLon0.15_PT003H.grib2 2026-04-28 03:57 574K
20260428T00Z_MSC_GDPS_GeopotentialHeight_IsbL-0100_LatLon0.15_PT003H.grib2 2026-04-28 03:57 606K
20260428T00Z_MSC_GDPS_GeopotentialHeight_IsbL-0150_LatLon0.15_PT003H.grib2 2026-04-28 03:57 624K
20260428T00Z_MSC_GDPS_GeopotentialHeight_IsbL-0175_LatLon0.15_PT003H.grib2 2026-04-28 03:57 628K
20260428T00Z_MSC_GDPS_GeopotentialHeight_IsbL-0200_LatLon0.15_PT003H.grib2 2026-04-28 03:57 632K
20260428T00Z_MSC_GDPS_GeopotentialHeight_IsbL-0225_LatLon0.15_PT003H.grib2 2026-04-28 03:57 636K
20260428T00Z_MSC_GDPS_GeopotentialHeight_IsbL-0250_LatLon0.15_PT003H.grib2 2026-04-28 03:57 639K
20260428T00Z_MSC_GDPS_GeopotentialHeight_IsbL-0275_LatLon0.15_PT003H.grib2 2026-04-28 03:57 637K
20260428T00Z_MSC_GDPS_GeopotentialHeight_IsbL-0300_LatLon0.15_PT003H.grib2 2026-04-28 03:57 638K
20260428T00Z_MSC_GDPS_GeopotentialHeight_IsbL-0350_LatLon0.15_PT003H.grib2 2026-04-28 03:57 628K
20260428T00Z_MSC_GDPS_GeopotentialHeight_IsbL-0400_LatLon0.15_PT003H.grib2 2026-04-28 03:57 621K
20260428T00Z_MSC_GDPS_GeopotentialHeight_IsbL-0450_LatLon0.15_PT003H.grib2 2026-04-28 03:57 611K
20260428T00Z_MSC_GDPS_GeopotentialHeight_IsbL-0500_LatLon0.15_PT003H.grib2 2026-04-28 03:57 602K
20260428T00Z_MSC_GDPS_GeopotentialHeight_IsbL-0550_LatLon0.15_PT003H.grib2 2026-04-28 03:57 594K
20260428T00Z_MSC_GDPS_GeopotentialHeight_IsbL-0600_LatLon0.15_PT003H.grib2 2026-04-28 03:57 518K
20260428T00Z_MSC_GDPS_GeopotentialHeight_IsbL-0650_LatLon0.15_PT003H.grib2 2026-04-28 03:57 518K
20260428T00Z_MSC_GDPS_GeopotentialHeight_IsbL-0700_LatLon0.15_PT003H.grib2 2026-04-28 03:57 680K
20260428T00Z_MSC_GDPS_GeopotentialHeight_IsbL-0750_LatLon0.15_PT003H.grib2 2026-04-28 03:57 689K
20260428T00Z_MSC_GDPS_GeopotentialHeight_IsbL-0800_LatLon0.15_PT003H.grib2 2026-04-28 03:57 697K
20260428T00Z_MSC_GDPS_GeopotentialHeight_IsbL-0850_LatLon0.15_PT003H.grib2 2026-04-28 03:57 701K
20260428T00Z_MSC_GDPS_GeopotentialHeight_IsbL-0875_LatLon0.15_PT003H.grib2 2026-04-28 03:57 710K
20260428T00Z_MSC_GDPS_GeopotentialHeight_IsbL-0900_LatLon0.15_PT003H.grib2 2026-04-28 03:57 719K
20260428T00Z_MSC_GDPS_GeopotentialHeight_IsbL-0925_LatLon0.15_PT003H.grib2 2026-04-28 03:57 722K
20260428T00Z_MSC_GDPS_GeopotentialHeight_IsbL-0950_LatLon0.15_PT003H.grib2 2026-04-28 03:57 731K
20260428T00Z_MSC_GDPS_GeopotentialHeight_IsbL-0970_LatLon0.15_PT003H.grib2 2026-04-28 03:57 744K
20260428T00Z_MSC_GDPS_GeopotentialHeight_IsbL-0985_LatLon0.15_PT003H.grib2 2026-04-28 03:57 761K
20260428T00Z_MSC_GDPS_GeopotentialHeight_IsbL-1000_LatLon0.15_PT003H.grib2 2026-04-28 03:57 781K
20260428T00Z_MSC_GDPS_GeopotentialHeight_IsbL-1015_LatLon0.15_PT003H.grib2 2026-04-28 03:57 803K
20260428T00Z_MSC_GDPS_Humidex_Sfc_LatLon0.15_PT003H.grib2 2026-04-28 03:57 5.3M
20260428T00Z_MSC_GDPS_IcePellets-Accum1h_Sfc_LatLon0.15_PT003H.grib2 2026-04-28 03:57 8.7K
20260428T00Z_MSC_GDPS_IcePellets-Accum3h_Sfc_LatLon0.15_PT003H.grib2 2026-04-28 03:57 11K
20260428T00Z_MSC_GDPS_IcePellets-Accum_Sfc_LatLon0.15_PT003H.grib2 2026-04-28 03:57 14K
20260428T00Z_MSC_GDPS_KIndex_Sfc_LatLon0.15_PT003H.grib2 2026-04-28 03:57 6.0M
20260428T00Z_MSC_GDPS_LatentHeatNetFlux_Sfc_LatLon0.15_PT003H.grib2 2026-04-28 03:57 668K
20260428T00Z_MSC_GDPS_LiftedIndex-MU-VT_IsbL-0500_LatLon0.15_PT003H.grib2 2026-04-28 03:57 5.3M
20260428T00Z_MSC_GDPS_NetLongwaveRadiationFlux-Accum_Sfc_LatLon0.15_PT003H.grib2 2026-04-28 03:57 1.2M
20260428T00Z_MSC_GDPS_NetShortwaveRadiationFlux-Accum_Sfc_LatLon0.15_PT003H.grib2 2026-04-28 03:57 552K
20260428T00Z_MSC_GDPS_O3MixingRatio_LatLon0.15_PT003H.grib2 2026-04-28 04:52 2.1M
20260428T00Z_MSC_GDPS_O3_EAtm_LatLon0.15_PT003H.grib2 2026-04-28 04:52 2.5M
20260428T00Z_MSC_GDPS_PlanetaryBoundaryLayerHeight_Sfc_LatLon0.15_PT003H.grib2 2026-04-28 03:57 2.4M
20260428T00Z_MSC_GDPS_Precip-Accum1h_Sfc_LatLon0.15_PT003H.grib2 2026-04-28 03:57 3.1M
20260428T00Z_MSC_GDPS_Precip-Accum3h_Sfc_LatLon0.15_PT003H.grib2 2026-04-28 03:57 3.4M
20260428T00Z_MSC_GDPS_Precip-Accum_Sfc_LatLon0.15_PT003H.grib2 2026-04-28 03:57 3.3M
20260428T00Z_MSC_GDPS_PrecipRate_Sfc_LatLon0.15_PT003H.grib2 2026-04-28 03:57 2.8M
20260428T00Z_MSC_GDPS_PrecipType-Instant_Sfc_LatLon0.15_PT003H.grib2 2026-04-28 03:57 1.4M
20260428T00Z_MSC_GDPS_Pressure_MSL_LatLon0.15_PT003H.grib2 2026-04-28 03:57 714K
20260428T00Z_MSC_GDPS_Pressure_PVU-1.5_LatLon0.15_PT003H.grib2 2026-04-28 03:57 5.8M
20260428T00Z_MSC_GDPS_Pressure_PVU-1_LatLon0.15_PT003H.grib2 2026-04-28 03:57 6.0M
20260428T00Z_MSC_GDPS_Pressure_PVU-2_LatLon0.15_PT003H.grib2 2026-04-28 03:57 5.6M
20260428T00Z_MSC_GDPS_Pressure_Sfc_LatLon0.15_PT003H.grib2 2026-04-28 03:57 1.1M
20260428T00Z_MSC_GDPS_RadiativeTemp_Sfc_LatLon0.15_PT003H.grib2 2026-04-28 03:57 653K
20260428T00Z_MSC_GDPS_Rain-Accum1h_Sfc_LatLon0.15_PT003H.grib2 2026-04-28 03:57 1.6M
20260428T00Z_MSC_GDPS_Rain-Accum3h_Sfc_LatLon0.15_PT003H.grib2 2026-04-28 03:57 1.7M
20260428T00Z_MSC_GDPS_Rain-Accum_Sfc_LatLon0.15_PT003H.grib2 2026-04-28 03:57 2.2M
20260428T00Z_MSC_GDPS_RelativeHumidity_AGL-2m_LatLon0.15_PT003H.grib2 2026-04-28 03:57 1.0M
20260428T00Z_MSC_GDPS_RelativeHumidity_IsbL-0010_LatLon0.15_PT003H.grib2 2026-04-28 03:57 185K
20260428T00Z_MSC_GDPS_RelativeHumidity_IsbL-0020_LatLon0.15_PT003H.grib2 2026-04-28 03:57 303K
20260428T00Z_MSC_GDPS_RelativeHumidity_IsbL-0030_LatLon0.15_PT003H.grib2 2026-04-28 03:57 354K
20260428T00Z_MSC_GDPS_RelativeHumidity_IsbL-0050_LatLon0.15_PT003H.grib2 2026-04-28 03:57 421K
20260428T00Z_MSC_GDPS_RelativeHumidity_IsbL-0100_LatLon0.15_PT003H.grib2 2026-04-28 03:57 507K
20260428T00Z_MSC_GDPS_RelativeHumidity_IsbL-0150_LatLon0.15_PT003H.grib2 2026-04-28 03:57 657K
20260428T00Z_MSC_GDPS_RelativeHumidity_IsbL-0175_LatLon0.15_PT003H.grib2 2026-04-28 03:57 590K
20260428T00Z_MSC_GDPS_RelativeHumidity_IsbL-0200_LatLon0.15_PT003H.grib2 2026-04-28 03:57 697K
20260428T00Z_MSC_GDPS_RelativeHumidity_IsbL-0225_LatLon0.15_PT003H.grib2 2026-04-28 03:57 780K
20260428T00Z_MSC_GDPS_RelativeHumidity_IsbL-0250_LatLon0.15_PT003H.grib2 2026-04-28 03:57 854K
20260428T00Z_MSC_GDPS_RelativeHumidity_IsbL-0275_LatLon0.15_PT003H.grib2 2026-04-28 03:57 881K
20260428T00Z_MSC_GDPS_RelativeHumidity_IsbL-0300_LatLon0.15_PT003H.grib2 2026-04-28 03:57 928K
20260428T00Z_MSC_GDPS_RelativeHumidity_IsbL-0350_LatLon0.15_PT003H.grib2 2026-04-28 03:57 947K
20260428T00Z_MSC_GDPS_RelativeHumidity_IsbL-0400_LatLon0.15_PT003H.grib2 2026-04-28 03:57 969K
20260428T00Z_MSC_GDPS_RelativeHumidity_IsbL-0450_LatLon0.15_PT003H.grib2 2026-04-28 03:57 1.0M
20260428T00Z_MSC_GDPS_RelativeHumidity_IsbL-0500_LatLon0.15_PT003H.grib2 2026-04-28 03:57 1.0M
20260428T00Z_MSC_GDPS_RelativeHumidity_IsbL-0550_LatLon0.15_PT003H.grib2 2026-04-28 03:57 1.1M
20260428T00Z_MSC_GDPS_RelativeHumidity_IsbL-0600_LatLon0.15_PT003H.grib2 2026-04-28 03:57 1.1M
20260428T00Z_MSC_GDPS_RelativeHumidity_IsbL-0650_LatLon0.15_PT003H.grib2 2026-04-28 03:57 1.1M
20260428T00Z_MSC_GDPS_RelativeHumidity_IsbL-0700_LatLon0.15_PT003H.grib2 2026-04-28 03:57 1.1M
20260428T00Z_MSC_GDPS_RelativeHumidity_IsbL-0750_LatLon0.15_PT003H.grib2 2026-04-28 03:57 1.2M
20260428T00Z_MSC_GDPS_RelativeHumidity_IsbL-0800_LatLon0.15_PT003H.grib2 2026-04-28 03:57 1.3M
20260428T00Z_MSC_GDPS_RelativeHumidity_IsbL-0850_LatLon0.15_PT003H.grib2 2026-04-28 03:57 1.3M
20260428T00Z_MSC_GDPS_RelativeHumidity_IsbL-0875_LatLon0.15_PT003H.grib2 2026-04-28 03:57 1.3M
20260428T00Z_MSC_GDPS_RelativeHumidity_IsbL-0900_LatLon0.15_PT003H.grib2 2026-04-28 03:57 1.3M
20260428T00Z_MSC_GDPS_RelativeHumidity_IsbL-0925_LatLon0.15_PT003H.grib2 2026-04-28 03:57 1.2M
20260428T00Z_MSC_GDPS_RelativeHumidity_IsbL-0950_LatLon0.15_PT003H.grib2 2026-04-28 03:57 1.2M
20260428T00Z_MSC_GDPS_RelativeHumidity_IsbL-0970_LatLon0.15_PT003H.grib2 2026-04-28 03:57 1.2M
20260428T00Z_MSC_GDPS_RelativeHumidity_IsbL-0985_LatLon0.15_PT003H.grib2 2026-04-28 03:57 1.1M
20260428T00Z_MSC_GDPS_RelativeHumidity_IsbL-1000_LatLon0.15_PT003H.grib2 2026-04-28 03:57 1.1M
20260428T00Z_MSC_GDPS_RelativeHumidity_IsbL-1015_LatLon0.15_PT003H.grib2 2026-04-28 03:57 1.0M
20260428T00Z_MSC_GDPS_RelativeVorticity_IsbL-0200_LatLon0.15_PT003H.grib2 2026-04-28 03:57 1.5M
20260428T00Z_MSC_GDPS_RelativeVorticity_IsbL-0250_LatLon0.15_PT003H.grib2 2026-04-28 03:57 1.3M
20260428T00Z_MSC_GDPS_RelativeVorticity_IsbL-0500_LatLon0.15_PT003H.grib2 2026-04-28 03:57 1.5M
20260428T00Z_MSC_GDPS_RelativeVorticity_IsbL-0700_LatLon0.15_PT003H.grib2 2026-04-28 03:57 1.6M
20260428T00Z_MSC_GDPS_RelativeVorticity_IsbL-0850_LatLon0.15_PT003H.grib2 2026-04-28 03:57 1.6M
20260428T00Z_MSC_GDPS_Runoff-Accum_Sfc_LatLon0.15_PT003H.grib2 2026-04-28 03:57 57K
20260428T00Z_MSC_GDPS_SensibleHeatNetFlux_Sfc_LatLon0.15_PT003H.grib2 2026-04-28 03:57 622K
20260428T00Z_MSC_GDPS_ShowalterIndex_IsbL-0500_LatLon0.15_PT003H.grib2 2026-04-28 03:57 6.2M
20260428T00Z_MSC_GDPS_Snow-Accum1h_Sfc_LatLon0.15_PT003H.grib2 2026-04-28 03:57 1.1M
20260428T00Z_MSC_GDPS_Snow-Accum3h_Sfc_LatLon0.15_PT003H.grib2 2026-04-28 03:57 929K
20260428T00Z_MSC_GDPS_Snow-Accum_Sfc_LatLon0.15_PT003H.grib2 2026-04-28 03:57 1.5M
20260428T00Z_MSC_GDPS_SnowDensity_Sfc_LatLon0.15_PT003H.grib2 2026-04-28 03:57 255K
20260428T00Z_MSC_GDPS_SnowDepth_Sfc_LatLon0.15_PT003H.grib2 2026-04-28 03:57 1.7M
20260428T00Z_MSC_GDPS_SoilTemp_DBS-0to10cm_LatLon0.15_PT003H.grib2 2026-04-28 03:57 488K
20260428T00Z_MSC_GDPS_SoilTemp_Sfc_LatLon0.15_PT003H.grib2 2026-04-28 03:57 557K
20260428T00Z_MSC_GDPS_SoilVolumetricIceContent_Sfc_LatLon0.15_PT003H.grib2 2026-04-28 03:57 212K
20260428T00Z_MSC_GDPS_SoilVolumetricWaterContent_DBS-0to10cm_LatLon0.15_PT003H.grib2 2026-04-28 03:57 575K
20260428T00Z_MSC_GDPS_SoilVolumetricWaterContent_DBS-0to1cm_LatLon0.15_PT003H.grib2 2026-04-28 03:57 644K
20260428T00Z_MSC_GDPS_SpecificHumidity_AGL-120m_LatLon0.15_PT003H.grib2 2026-04-28 03:57 1.1M
20260428T00Z_MSC_GDPS_SpecificHumidity_AGL-2m_LatLon0.15_PT003H.grib2 2026-04-28 03:57 1.2M
20260428T00Z_MSC_GDPS_SpecificHumidity_AGL-40m_LatLon0.15_PT003H.grib2 2026-04-28 03:57 1.1M
20260428T00Z_MSC_GDPS_SpecificHumidity_AGL-80m_LatLon0.15_PT003H.grib2 2026-04-28 03:57 1.1M
20260428T00Z_MSC_GDPS_SpecificHumidity_IsbL-0001_LatLon0.15_PT003H.grib2 2026-04-28 03:57 1.4M
20260428T00Z_MSC_GDPS_SpecificHumidity_IsbL-0005_LatLon0.15_PT003H.grib2 2026-04-28 03:57 1.3M
20260428T00Z_MSC_GDPS_SpecificHumidity_IsbL-0010_LatLon0.15_PT003H.grib2 2026-04-28 03:57 1.4M
20260428T00Z_MSC_GDPS_SpecificHumidity_IsbL-0020_LatLon0.15_PT003H.grib2 2026-04-28 03:57 1.5M
20260428T00Z_MSC_GDPS_SpecificHumidity_IsbL-0030_LatLon0.15_PT003H.grib2 2026-04-28 03:57 1.4M
20260428T00Z_MSC_GDPS_SpecificHumidity_IsbL-0050_LatLon0.15_PT003H.grib2 2026-04-28 03:57 1.8M
20260428T00Z_MSC_GDPS_SpecificHumidity_IsbL-0100_LatLon0.15_PT003H.grib2 2026-04-28 03:57 1.4M
20260428T00Z_MSC_GDPS_SpecificHumidity_IsbL-0150_LatLon0.15_PT003H.grib2 2026-04-28 03:57 1.0M
20260428T00Z_MSC_GDPS_SpecificHumidity_IsbL-0175_LatLon0.15_PT003H.grib2 2026-04-28 03:57 1.3M
20260428T00Z_MSC_GDPS_SpecificHumidity_IsbL-0200_LatLon0.15_PT003H.grib2 2026-04-28 03:57 1.3M
20260428T00Z_MSC_GDPS_SpecificHumidity_IsbL-0225_LatLon0.15_PT003H.grib2 2026-04-28 03:57 1.3M
20260428T00Z_MSC_GDPS_SpecificHumidity_IsbL-0250_LatLon0.15_PT003H.grib2 2026-04-28 03:57 1.4M
20260428T00Z_MSC_GDPS_SpecificHumidity_IsbL-0275_LatLon0.15_PT003H.grib2 2026-04-28 03:57 1.3M
20260428T00Z_MSC_GDPS_SpecificHumidity_IsbL-0300_LatLon0.15_PT003H.grib2 2026-04-28 03:57 1.5M
20260428T00Z_MSC_GDPS_SpecificHumidity_IsbL-0350_LatLon0.15_PT003H.grib2 2026-04-28 03:57 1.5M
20260428T00Z_MSC_GDPS_SpecificHumidity_IsbL-0400_LatLon0.15_PT003H.grib2 2026-04-28 03:57 1.5M
20260428T00Z_MSC_GDPS_SpecificHumidity_IsbL-0450_LatLon0.15_PT003H.grib2 2026-04-28 03:57 1.6M
20260428T00Z_MSC_GDPS_SpecificHumidity_IsbL-0500_LatLon0.15_PT003H.grib2 2026-04-28 03:57 1.4M
20260428T00Z_MSC_GDPS_SpecificHumidity_IsbL-0550_LatLon0.15_PT003H.grib2 2026-04-28 03:57 1.6M
20260428T00Z_MSC_GDPS_SpecificHumidity_IsbL-0600_LatLon0.15_PT003H.grib2 2026-04-28 03:57 1.7M
20260428T00Z_MSC_GDPS_SpecificHumidity_IsbL-0650_LatLon0.15_PT003H.grib2 2026-04-28 03:57 1.5M
20260428T00Z_MSC_GDPS_SpecificHumidity_IsbL-0700_LatLon0.15_PT003H.grib2 2026-04-28 03:57 1.6M
20260428T00Z_MSC_GDPS_SpecificHumidity_IsbL-0750_LatLon0.15_PT003H.grib2 2026-04-28 03:57 1.7M
20260428T00Z_MSC_GDPS_SpecificHumidity_IsbL-0800_LatLon0.15_PT003H.grib2 2026-04-28 03:57 1.8M
20260428T00Z_MSC_GDPS_SpecificHumidity_IsbL-0850_LatLon0.15_PT003H.grib2 2026-04-28 03:57 1.9M
20260428T00Z_MSC_GDPS_SpecificHumidity_IsbL-0875_LatLon0.15_PT003H.grib2 2026-04-28 03:57 1.9M
20260428T00Z_MSC_GDPS_SpecificHumidity_IsbL-0900_LatLon0.15_PT003H.grib2 2026-04-28 03:57 1.9M
20260428T00Z_MSC_GDPS_SpecificHumidity_IsbL-0925_LatLon0.15_PT003H.grib2 2026-04-28 03:57 1.9M
20260428T00Z_MSC_GDPS_SpecificHumidity_IsbL-0950_LatLon0.15_PT003H.grib2 2026-04-28 03:57 1.5M
20260428T00Z_MSC_GDPS_SpecificHumidity_IsbL-0970_LatLon0.15_PT003H.grib2 2026-04-28 03:57 1.5M
20260428T00Z_MSC_GDPS_SpecificHumidity_IsbL-0985_LatLon0.15_PT003H.grib2 2026-04-28 03:57 1.5M
20260428T00Z_MSC_GDPS_SpecificHumidity_IsbL-1000_LatLon0.15_PT003H.grib2 2026-04-28 03:57 1.5M
20260428T00Z_MSC_GDPS_SpecificHumidity_IsbL-1015_LatLon0.15_PT003H.grib2 2026-04-28 03:57 1.4M
20260428T00Z_MSC_GDPS_SpecificHumidity_Sfc_LatLon0.15_PT003H.grib2 2026-04-28 03:57 653K
20260428T00Z_MSC_GDPS_Thickness_IsbL-0850to0700_LatLon0.15_PT003H.grib2 2026-04-28 03:57 464K
20260428T00Z_MSC_GDPS_Thickness_IsbL-1000to0500_LatLon0.15_PT003H.grib2 2026-04-28 03:57 369K
20260428T00Z_MSC_GDPS_Thickness_IsbL-1000to0850_LatLon0.15_PT003H.grib2 2026-04-28 03:57 485K
20260428T00Z_MSC_GDPS_TotalCloudCover_Sfc_LatLon0.15_PT003H.grib2 2026-04-28 03:57 821K
20260428T00Z_MSC_GDPS_TotalTotalsIndex_Sfc_LatLon0.15_PT003H.grib2 2026-04-28 03:57 6.1M
20260428T00Z_MSC_GDPS_UVIndex-ClearSky_Sfc_LatLon0.15_PT003H.grib2 2026-04-28 04:52 1.0M
20260428T00Z_MSC_GDPS_UVIndex_Sfc_LatLon0.15_PT003H.grib2 2026-04-28 04:52 1.5M
20260428T00Z_MSC_GDPS_UpwardLongwaveRadiationFlux_NTAtm_LatLon0.15_PT003H.grib2 2026-04-28 03:57 1.0M
20260428T00Z_MSC_GDPS_VerticalVelocity_IsbL-0200_LatLon0.15_PT003H.grib2 2026-04-28 03:57 921K
20260428T00Z_MSC_GDPS_VerticalVelocity_IsbL-0250_LatLon0.15_PT003H.grib2 2026-04-28 03:57 1.0M
20260428T00Z_MSC_GDPS_VerticalVelocity_IsbL-0500_LatLon0.15_PT003H.grib2 2026-04-28 03:57 1.0M
20260428T00Z_MSC_GDPS_VerticalVelocity_IsbL-0600_LatLon0.15_PT003H.grib2 2026-04-28 03:57 1.0M
20260428T00Z_MSC_GDPS_VerticalVelocity_IsbL-0700_LatLon0.15_PT003H.grib2 2026-04-28 03:57 1.1M
20260428T00Z_MSC_GDPS_VerticalVelocity_IsbL-0850_LatLon0.15_PT003H.grib2 2026-04-28 03:57 1.6M
20260428T00Z_MSC_GDPS_WindChill_Sfc_LatLon0.15_PT003H.grib2 2026-04-28 03:57 5.3M
20260428T00Z_MSC_GDPS_WindDir_AGL-10m_LatLon0.15_PT003H.grib2 2026-04-28 03:57 1.3M
20260428T00Z_MSC_GDPS_WindDir_AGL-120m_LatLon0.15_PT003H.grib2 2026-04-28 03:57 1.3M
20260428T00Z_MSC_GDPS_WindDir_AGL-40m_LatLon0.15_PT003H.grib2 2026-04-28 03:57 1.4M
20260428T00Z_MSC_GDPS_WindDir_AGL-80m_LatLon0.15_PT003H.grib2 2026-04-28 03:57 1.4M
20260428T00Z_MSC_GDPS_WindDir_IsbL-0001_LatLon0.15_PT003H.grib2 2026-04-28 03:57 683K
20260428T00Z_MSC_GDPS_WindDir_IsbL-0005_LatLon0.15_PT003H.grib2 2026-04-28 03:57 810K
20260428T00Z_MSC_GDPS_WindDir_IsbL-0010_LatLon0.15_PT003H.grib2 2026-04-28 03:57 868K
20260428T00Z_MSC_GDPS_WindDir_IsbL-0020_LatLon0.15_PT003H.grib2 2026-04-28 03:57 948K
20260428T00Z_MSC_GDPS_WindDir_IsbL-0030_LatLon0.15_PT003H.grib2 2026-04-28 03:57 940K
20260428T00Z_MSC_GDPS_WindDir_IsbL-0050_LatLon0.15_PT003H.grib2 2026-04-28 03:57 956K
20260428T00Z_MSC_GDPS_WindDir_IsbL-0100_LatLon0.15_PT003H.grib2 2026-04-28 03:57 1.0M
20260428T00Z_MSC_GDPS_WindDir_IsbL-0150_LatLon0.15_PT003H.grib2 2026-04-28 03:57 1.0M
20260428T00Z_MSC_GDPS_WindDir_IsbL-0175_LatLon0.15_PT003H.grib2 2026-04-28 03:57 1.1M
20260428T00Z_MSC_GDPS_WindDir_IsbL-0200_LatLon0.15_PT003H.grib2 2026-04-28 03:57 1.1M
20260428T00Z_MSC_GDPS_WindDir_IsbL-0225_LatLon0.15_PT003H.grib2 2026-04-28 03:57 1.1M
20260428T00Z_MSC_GDPS_WindDir_IsbL-0250_LatLon0.15_PT003H.grib2 2026-04-28 03:57 1.1M
20260428T00Z_MSC_GDPS_WindDir_IsbL-0275_LatLon0.15_PT003H.grib2 2026-04-28 03:57 1.2M
20260428T00Z_MSC_GDPS_WindDir_IsbL-0300_LatLon0.15_PT003H.grib2 2026-04-28 03:57 1.2M
20260428T00Z_MSC_GDPS_WindDir_IsbL-0350_LatLon0.15_PT003H.grib2 2026-04-28 03:57 1.2M
20260428T00Z_MSC_GDPS_WindDir_IsbL-0400_LatLon0.15_PT003H.grib2 2026-04-28 03:57 1.3M
20260428T00Z_MSC_GDPS_WindDir_IsbL-0450_LatLon0.15_PT003H.grib2 2026-04-28 03:57 1.3M
20260428T00Z_MSC_GDPS_WindDir_IsbL-0500_LatLon0.15_PT003H.grib2 2026-04-28 03:57 1.3M
20260428T00Z_MSC_GDPS_WindDir_IsbL-0550_LatLon0.15_PT003H.grib2 2026-04-28 03:57 1.4M
20260428T00Z_MSC_GDPS_WindDir_IsbL-0600_LatLon0.15_PT003H.grib2 2026-04-28 03:57 1.4M
20260428T00Z_MSC_GDPS_WindDir_IsbL-0650_LatLon0.15_PT003H.grib2 2026-04-28 03:57 1.5M
20260428T00Z_MSC_GDPS_WindDir_IsbL-0700_LatLon0.15_PT003H.grib2 2026-04-28 03:57 1.6M
20260428T00Z_MSC_GDPS_WindDir_IsbL-0750_LatLon0.15_PT003H.grib2 2026-04-28 03:57 1.7M
20260428T00Z_MSC_GDPS_WindDir_IsbL-0800_LatLon0.15_PT003H.grib2 2026-04-28 03:57 1.8M
20260428T00Z_MSC_GDPS_WindDir_IsbL-0850_LatLon0.15_PT003H.grib2 2026-04-28 03:57 1.9M
20260428T00Z_MSC_GDPS_WindDir_IsbL-0875_LatLon0.15_PT003H.grib2 2026-04-28 03:57 1.9M
20260428T00Z_MSC_GDPS_WindDir_IsbL-0900_LatLon0.15_PT003H.grib2 2026-04-28 03:57 1.9M
20260428T00Z_MSC_GDPS_WindDir_IsbL-0925_LatLon0.15_PT003H.grib2 2026-04-28 03:57 2.0M
20260428T00Z_MSC_GDPS_WindDir_IsbL-0950_LatLon0.15_PT003H.grib2 2026-04-28 03:57 2.0M
20260428T00Z_MSC_GDPS_WindDir_IsbL-0970_LatLon0.15_PT003H.grib2 2026-04-28 03:57 2.0M
20260428T00Z_MSC_GDPS_WindDir_IsbL-0985_LatLon0.15_PT003H.grib2 2026-04-28 03:57 2.0M
20260428T00Z_MSC_GDPS_WindDir_IsbL-1000_LatLon0.15_PT003H.grib2 2026-04-28 03:57 2.0M
20260428T00Z_MSC_GDPS_WindDir_IsbL-1015_LatLon0.15_PT003H.grib2 2026-04-28 03:57 2.0M
20260428T00Z_MSC_GDPS_WindGust-Max_AGL-10m_LatLon0.15_PT003H.grib2 2026-04-28 03:57 2.2M
20260428T00Z_MSC_GDPS_WindGust-Min_AGL-10m_LatLon0.15_PT003H.grib2 2026-04-28 03:57 2.2M
20260428T00Z_MSC_GDPS_WindGust_AGL-10m_LatLon0.15_PT003H.grib2 2026-04-28 03:57 2.1M
20260428T00Z_MSC_GDPS_WindSpeed_AGL-10m_LatLon0.15_PT003H.grib2 2026-04-28 03:57 1.1M
20260428T00Z_MSC_GDPS_WindSpeed_AGL-120m_LatLon0.15_PT003H.grib2 2026-04-28 03:57 1.2M
20260428T00Z_MSC_GDPS_WindSpeed_AGL-40m_LatLon0.15_PT003H.grib2 2026-04-28 03:57 1.2M
20260428T00Z_MSC_GDPS_WindSpeed_AGL-80m_LatLon0.15_PT003H.grib2 2026-04-28 03:57 1.2M
20260428T00Z_MSC_GDPS_WindSpeed_IsbL-0001_LatLon0.15_PT003H.grib2 2026-04-28 03:57 650K
20260428T00Z_MSC_GDPS_WindSpeed_IsbL-0005_LatLon0.15_PT003H.grib2 2026-04-28 03:57 706K
20260428T00Z_MSC_GDPS_WindSpeed_IsbL-0010_LatLon0.15_PT003H.grib2 2026-04-28 03:57 640K
20260428T00Z_MSC_GDPS_WindSpeed_IsbL-0020_LatLon0.15_PT003H.grib2 2026-04-28 03:57 675K
20260428T00Z_MSC_GDPS_WindSpeed_IsbL-0030_LatLon0.15_PT003H.grib2 2026-04-28 03:57 872K
20260428T00Z_MSC_GDPS_WindSpeed_IsbL-0050_LatLon0.15_PT003H.grib2 2026-04-28 03:57 1.0M
20260428T00Z_MSC_GDPS_WindSpeed_IsbL-0100_LatLon0.15_PT003H.grib2 2026-04-28 03:57 1.1M
20260428T00Z_MSC_GDPS_WindSpeed_IsbL-0150_LatLon0.15_PT003H.grib2 2026-04-28 03:57 1.0M
20260428T00Z_MSC_GDPS_WindSpeed_IsbL-0175_LatLon0.15_PT003H.grib2 2026-04-28 03:57 1.0M
20260428T00Z_MSC_GDPS_WindSpeed_IsbL-0200_LatLon0.15_PT003H.grib2 2026-04-28 03:57 1.1M
20260428T00Z_MSC_GDPS_WindSpeed_IsbL-0225_LatLon0.15_PT003H.grib2 2026-04-28 03:57 1.1M
20260428T00Z_MSC_GDPS_WindSpeed_IsbL-0250_LatLon0.15_PT003H.grib2 2026-04-28 03:57 1.1M
20260428T00Z_MSC_GDPS_WindSpeed_IsbL-0275_LatLon0.15_PT003H.grib2 2026-04-28 03:57 1.1M
20260428T00Z_MSC_GDPS_WindSpeed_IsbL-0300_LatLon0.15_PT003H.grib2 2026-04-28 03:57 1.1M
20260428T00Z_MSC_GDPS_WindSpeed_IsbL-0350_LatLon0.15_PT003H.grib2 2026-04-28 03:57 1.1M
20260428T00Z_MSC_GDPS_WindSpeed_IsbL-0400_LatLon0.15_PT003H.grib2 2026-04-28 03:57 1.1M
20260428T00Z_MSC_GDPS_WindSpeed_IsbL-0450_LatLon0.15_PT003H.grib2 2026-04-28 03:57 1.1M
20260428T00Z_MSC_GDPS_WindSpeed_IsbL-0500_LatLon0.15_PT003H.grib2 2026-04-28 03:57 1.1M
20260428T00Z_MSC_GDPS_WindSpeed_IsbL-0550_LatLon0.15_PT003H.grib2 2026-04-28 03:57 1.1M
20260428T00Z_MSC_GDPS_WindSpeed_IsbL-0600_LatLon0.15_PT003H.grib2 2026-04-28 03:57 1.4M
20260428T00Z_MSC_GDPS_WindSpeed_IsbL-0650_LatLon0.15_PT003H.grib2 2026-04-28 03:57 1.4M
20260428T00Z_MSC_GDPS_WindSpeed_IsbL-0700_LatLon0.15_PT003H.grib2 2026-04-28 03:57 1.5M
20260428T00Z_MSC_GDPS_WindSpeed_IsbL-0750_LatLon0.15_PT003H.grib2 2026-04-28 03:57 1.5M
20260428T00Z_MSC_GDPS_WindSpeed_IsbL-0800_LatLon0.15_PT003H.grib2 2026-04-28 03:57 1.6M
20260428T00Z_MSC_GDPS_WindSpeed_IsbL-0850_LatLon0.15_PT003H.grib2 2026-04-28 03:57 1.7M
20260428T00Z_MSC_GDPS_WindSpeed_IsbL-0875_LatLon0.15_PT003H.grib2 2026-04-28 03:57 1.8M
20260428T00Z_MSC_GDPS_WindSpeed_IsbL-0900_LatLon0.15_PT003H.grib2 2026-04-28 03:57 1.8M
20260428T00Z_MSC_GDPS_WindSpeed_IsbL-0925_LatLon0.15_PT003H.grib2 2026-04-28 03:57 1.8M
20260428T00Z_MSC_GDPS_WindSpeed_IsbL-0950_LatLon0.15_PT003H.grib2 2026-04-28 03:57 1.9M
20260428T00Z_MSC_GDPS_WindSpeed_IsbL-0970_LatLon0.15_PT003H.grib2 2026-04-28 03:57 1.9M
20260428T00Z_MSC_GDPS_WindSpeed_IsbL-0985_LatLon0.15_PT003H.grib2 2026-04-28 03:57 1.9M
20260428T00Z_MSC_GDPS_WindSpeed_IsbL-1000_LatLon0.15_PT003H.grib2 2026-04-28 03:57 1.8M
20260428T00Z_MSC_GDPS_WindSpeed_IsbL-1015_LatLon0.15_PT003H.grib2 2026-04-28 03:57 1.8M
20260428T00Z_MSC_GDPS_WindU_AGL-10m_LatLon0.15_PT003H.grib2 2026-04-28 03:57 1.3M
20260428T00Z_MSC_GDPS_WindU_AGL-120m_LatLon0.15_PT003H.grib2 2026-04-28 03:57 968K
20260428T00Z_MSC_GDPS_WindU_AGL-40m_LatLon0.15_PT003H.grib2 2026-04-28 03:57 962K
20260428T00Z_MSC_GDPS_WindU_AGL-80m_LatLon0.15_PT003H.grib2 2026-04-28 03:57 968K
20260428T00Z_MSC_GDPS_WindU_IsbL-0001_LatLon0.15_PT003H.grib2 2026-04-28 03:57 652K
20260428T00Z_MSC_GDPS_WindU_IsbL-0005_LatLon0.15_PT003H.grib2 2026-04-28 03:57 702K
20260428T00Z_MSC_GDPS_WindU_IsbL-0010_LatLon0.15_PT003H.grib2 2026-04-28 03:57 715K
20260428T00Z_MSC_GDPS_WindU_IsbL-0020_LatLon0.15_PT003H.grib2 2026-04-28 03:57 742K
20260428T00Z_MSC_GDPS_WindU_IsbL-0030_LatLon0.15_PT003H.grib2 2026-04-28 03:57 749K
20260428T00Z_MSC_GDPS_WindU_IsbL-0050_LatLon0.15_PT003H.grib2 2026-04-28 03:57 707K
20260428T00Z_MSC_GDPS_WindU_IsbL-0100_LatLon0.15_PT003H.grib2 2026-04-28 03:57 918K
20260428T00Z_MSC_GDPS_WindU_IsbL-0150_LatLon0.15_PT003H.grib2 2026-04-28 03:57 1.0M
20260428T00Z_MSC_GDPS_WindU_IsbL-0175_LatLon0.15_PT003H.grib2 2026-04-28 03:57 1.0M
20260428T00Z_MSC_GDPS_WindU_IsbL-0200_LatLon0.15_PT003H.grib2 2026-04-28 03:57 1.0M
20260428T00Z_MSC_GDPS_WindU_IsbL-0225_LatLon0.15_PT003H.grib2 2026-04-28 03:57 851K
20260428T00Z_MSC_GDPS_WindU_IsbL-0250_LatLon0.15_PT003H.grib2 2026-04-28 03:57 854K
20260428T00Z_MSC_GDPS_WindU_IsbL-0275_LatLon0.15_PT003H.grib2 2026-04-28 03:57 881K
20260428T00Z_MSC_GDPS_WindU_IsbL-0300_LatLon0.15_PT003H.grib2 2026-04-28 03:57 873K
20260428T00Z_MSC_GDPS_WindU_IsbL-0350_LatLon0.15_PT003H.grib2 2026-04-28 03:57 890K
20260428T00Z_MSC_GDPS_WindU_IsbL-0400_LatLon0.15_PT003H.grib2 2026-04-28 03:57 891K
20260428T00Z_MSC_GDPS_WindU_IsbL-0450_LatLon0.15_PT003H.grib2 2026-04-28 03:57 1.1M
20260428T00Z_MSC_GDPS_WindU_IsbL-0500_LatLon0.15_PT003H.grib2 2026-04-28 03:57 1.1M
20260428T00Z_MSC_GDPS_WindU_IsbL-0550_LatLon0.15_PT003H.grib2 2026-04-28 03:57 1.1M
20260428T00Z_MSC_GDPS_WindU_IsbL-0600_LatLon0.15_PT003H.grib2 2026-04-28 03:57 1.1M
20260428T00Z_MSC_GDPS_WindU_IsbL-0650_LatLon0.15_PT003H.grib2 2026-04-28 03:57 1.2M
20260428T00Z_MSC_GDPS_WindU_IsbL-0700_LatLon0.15_PT003H.grib2 2026-04-28 03:57 1.2M
20260428T00Z_MSC_GDPS_WindU_IsbL-0750_LatLon0.15_PT003H.grib2 2026-04-28 03:57 1.3M
20260428T00Z_MSC_GDPS_WindU_IsbL-0800_LatLon0.15_PT003H.grib2 2026-04-28 03:57 1.3M
20260428T00Z_MSC_GDPS_WindU_IsbL-0850_LatLon0.15_PT003H.grib2 2026-04-28 03:57 1.4M
20260428T00Z_MSC_GDPS_WindU_IsbL-0875_LatLon0.15_PT003H.grib2 2026-04-28 03:57 1.4M
20260428T00Z_MSC_GDPS_WindU_IsbL-0900_LatLon0.15_PT003H.grib2 2026-04-28 03:57 1.4M
20260428T00Z_MSC_GDPS_WindU_IsbL-0925_LatLon0.15_PT003H.grib2 2026-04-28 03:57 1.4M
20260428T00Z_MSC_GDPS_WindU_IsbL-0950_LatLon0.15_PT003H.grib2 2026-04-28 03:57 1.4M
20260428T00Z_MSC_GDPS_WindU_IsbL-0970_LatLon0.15_PT003H.grib2 2026-04-28 03:57 1.4M
20260428T00Z_MSC_GDPS_WindU_IsbL-0985_LatLon0.15_PT003H.grib2 2026-04-28 03:57 1.4M
20260428T00Z_MSC_GDPS_WindU_IsbL-1000_LatLon0.15_PT003H.grib2 2026-04-28 03:57 1.4M
20260428T00Z_MSC_GDPS_WindU_IsbL-1015_LatLon0.15_PT003H.grib2 2026-04-28 03:57 1.3M
20260428T00Z_MSC_GDPS_WindV_AGL-10m_LatLon0.15_PT003H.grib2 2026-04-28 03:57 1.6M
20260428T00Z_MSC_GDPS_WindV_AGL-120m_LatLon0.15_PT003H.grib2 2026-04-28 03:57 970K
20260428T00Z_MSC_GDPS_WindV_AGL-40m_LatLon0.15_PT003H.grib2 2026-04-28 03:57 965K
20260428T00Z_MSC_GDPS_WindV_AGL-80m_LatLon0.15_PT003H.grib2 2026-04-28 03:57 970K
20260428T00Z_MSC_GDPS_WindV_IsbL-0001_LatLon0.15_PT003H.grib2 2026-04-28 03:57 717K
20260428T00Z_MSC_GDPS_WindV_IsbL-0005_LatLon0.15_PT003H.grib2 2026-04-28 03:57 866K
20260428T00Z_MSC_GDPS_WindV_IsbL-0010_LatLon0.15_PT003H.grib2 2026-04-28 03:57 892K
20260428T00Z_MSC_GDPS_WindV_IsbL-0020_LatLon0.15_PT003H.grib2 2026-04-28 03:57 940K
20260428T00Z_MSC_GDPS_WindV_IsbL-0030_LatLon0.15_PT003H.grib2 2026-04-28 03:57 858K
20260428T00Z_MSC_GDPS_WindV_IsbL-0050_LatLon0.15_PT003H.grib2 2026-04-28 03:57 1.0M
20260428T00Z_MSC_GDPS_WindV_IsbL-0100_LatLon0.15_PT003H.grib2 2026-04-28 03:57 849K
20260428T00Z_MSC_GDPS_WindV_IsbL-0150_LatLon0.15_PT003H.grib2 2026-04-28 03:57 1.0M
20260428T00Z_MSC_GDPS_WindV_IsbL-0175_LatLon0.15_PT003H.grib2 2026-04-28 03:57 1.0M
20260428T00Z_MSC_GDPS_WindV_IsbL-0200_LatLon0.15_PT003H.grib2 2026-04-28 03:57 838K
20260428T00Z_MSC_GDPS_WindV_IsbL-0225_LatLon0.15_PT003H.grib2 2026-04-28 03:57 846K
20260428T00Z_MSC_GDPS_WindV_IsbL-0250_LatLon0.15_PT003H.grib2 2026-04-28 03:57 848K
20260428T00Z_MSC_GDPS_WindV_IsbL-0275_LatLon0.15_PT003H.grib2 2026-04-28 03:57 877K
20260428T00Z_MSC_GDPS_WindV_IsbL-0300_LatLon0.15_PT003H.grib2 2026-04-28 03:57 867K
20260428T00Z_MSC_GDPS_WindV_IsbL-0350_LatLon0.15_PT003H.grib2 2026-04-28 03:57 881K
20260428T00Z_MSC_GDPS_WindV_IsbL-0400_LatLon0.15_PT003H.grib2 2026-04-28 03:57 884K
20260428T00Z_MSC_GDPS_WindV_IsbL-0450_LatLon0.15_PT003H.grib2 2026-04-28 03:57 1.1M
20260428T00Z_MSC_GDPS_WindV_IsbL-0500_LatLon0.15_PT003H.grib2 2026-04-28 03:57 1.1M
20260428T00Z_MSC_GDPS_WindV_IsbL-0550_LatLon0.15_PT003H.grib2 2026-04-28 03:57 1.1M
20260428T00Z_MSC_GDPS_WindV_IsbL-0600_LatLon0.15_PT003H.grib2 2026-04-28 03:57 1.1M
20260428T00Z_MSC_GDPS_WindV_IsbL-0650_LatLon0.15_PT003H.grib2 2026-04-28 03:57 1.2M
20260428T00Z_MSC_GDPS_WindV_IsbL-0700_LatLon0.15_PT003H.grib2 2026-04-28 03:57 1.2M
20260428T00Z_MSC_GDPS_WindV_IsbL-0750_LatLon0.15_PT003H.grib2 2026-04-28 03:57 1.3M
20260428T00Z_MSC_GDPS_WindV_IsbL-0800_LatLon0.15_PT003H.grib2 2026-04-28 03:57 1.3M
20260428T00Z_MSC_GDPS_WindV_IsbL-0850_LatLon0.15_PT003H.grib2 2026-04-28 03:57 1.4M
20260428T00Z_MSC_GDPS_WindV_IsbL-0875_LatLon0.15_PT003H.grib2 2026-04-28 03:57 1.4M
20260428T00Z_MSC_GDPS_WindV_IsbL-0900_LatLon0.15_PT003H.grib2 2026-04-28 03:57 1.4M
20260428T00Z_MSC_GDPS_WindV_IsbL-0925_LatLon0.15_PT003H.grib2 2026-04-28 03:57 1.4M
20260428T00Z_MSC_GDPS_WindV_IsbL-0950_LatLon0.15_PT003H.grib2 2026-04-28 03:57 1.4M
20260428T00Z_MSC_GDPS_WindV_IsbL-0970_LatLon0.15_PT003H.grib2 2026-04-28 03:57 1.4M
20260428T00Z_MSC_GDPS_WindV_IsbL-0985_LatLon0.15_PT003H.grib2 2026-04-28 03:57 1.4M
20260428T00Z_MSC_GDPS_WindV_IsbL-1000_LatLon0.15_PT003H.grib2 2026-04-28 03:57 1.4M
20260428T00Z_MSC_GDPS_WindV_IsbL-1015_LatLon0.15_PT003H.grib2 2026-04-28 03:57 1.6M